Location: Kra?nica
(53.4833°N, 14.6167°E)
Time: 17:09:35
(UTC+00:00)

Cosmos 1814 Rocket - Pass Details

Date: 23 May 2024
Orbit: 743 x 784 km, 74.1° (Epoch: 13 June)

Event Time Altitude Azimuth Distance (km) Brightness Sun altitude
Rises 00:51:56 0° 334° (NNW) 3,218 7.8 -11.9°
Reaches altitude 10° 00:54:18 10° 335° (NNW) 2,295 7.0 -11.8°
Maximum altitude 00:59:31 78° 62° (ENE) 785 4.2 -11.4°
Drops below altitude 10° 01:04:45 10° 150° (SSE) 2,307 6.2 -11.0°
Sets 01:07:09 0° 152° (SSE) 3,236 6.9 -10.8°
